UAL1642 KSFO-KSAN

Flight info

Callsign UAL1642
Flight time 1h 11m
Altitude 35000
Route WESLA5 YYUNG LAX COMIX2
Aircraft A320/M-SDE3FGHIRWY/LB1

Departure

Time 2026-04-25 21:20
Airport San Francisco International Airport (KSFO)

Arrival

Time 2026-04-25 22:31
Airport San Diego International Airport (KSAN)
Time Latitude Longitude Altitude Speed Heading
2026-04-25 20:59 37.61436 -122.38273 14 ft 0 kts 29°
2026-04-25 21:09 37.61434 -122.38275 13 ft 3 kts 28°
2026-04-25 21:09 37.61414 -122.38287 13 ft 4 kts 35°
2026-04-25 21:09 37.61395 -122.38310 17 ft 4 kts 68°
2026-04-25 21:10 37.61393 -122.38338 17 ft 2 kts 117°
2026-04-25 21:10 37.61396 -122.38344 17 ft 0 kts 118°
2026-04-25 21:13 37.61369 -122.38279 15 ft 11 kts 117°
2026-04-25 21:13 37.61352 -122.38181 15 ft 12 kts 64°
2026-04-25 21:13 37.61427 -122.38122 16 ft 13 kts 28°
2026-04-25 21:13 37.61521 -122.38060 14 ft 18 kts 27°
2026-04-25 21:14 37.61641 -122.37981 15 ft 21 kts 27°
2026-04-25 21:14 37.61752 -122.37881 17 ft 17 kts 42°
2026-04-25 21:14 37.61794 -122.37752 19 ft 18 kts 108°
2026-04-25 21:14 37.61749 -122.37605 19 ft 18 kts 111°
2026-04-25 21:15 37.61693 -122.37449 19 ft 21 kts 117°
2026-04-25 21:15 37.61624 -122.37285 22 ft 22 kts 118°
2026-04-25 21:15 37.61549 -122.37105 21 ft 25 kts 118°
2026-04-25 21:15 37.61459 -122.36917 21 ft 27 kts 131°
2026-04-25 21:16 37.61340 -122.36717 19 ft 30 kts 118°
2026-04-25 21:16 37.61244 -122.36490 14 ft 29 kts 117°
2026-04-25 21:16 37.61177 -122.36331 17 ft 13 kts 118°
2026-04-25 21:16 37.61130 -122.36219 18 ft 15 kts 118°
2026-04-25 21:17 37.61091 -122.36122 18 ft 10 kts 118°
2026-04-25 21:17 37.61065 -122.36059 19 ft 8 kts 116°
2026-04-25 21:17 37.61051 -122.35989 19 ft 7 kts 88°
2026-04-25 21:17 37.61053 -122.35978 19 ft 4 kts 79°
2026-04-25 21:18 37.61076 -122.35927 18 ft 9 kts 49°
2026-04-25 21:18 37.61130 -122.35879 18 ft 10 kts 27°
2026-04-25 21:18 37.61192 -122.35891 20 ft 11 kts 302°
2026-04-25 21:18 37.61199 -122.35909 18 ft 0 kts 298°
2026-04-25 21:19 37.61227 -122.35975 16 ft 36 kts 298°
2026-04-25 21:19 37.61452 -122.36513 18 ft 99 kts 298°
2026-04-25 21:19 37.61850 -122.37457 18 ft 146 kts 298°
2026-04-25 21:19 37.62364 -122.38654 376 ft 155 kts 295°
2026-04-25 21:20 37.62867 -122.39857 1036 ft 155 kts 296°
2026-04-25 21:20 37.63042 -122.40258 1259 ft 155 kts 296°
2026-04-25 21:20 37.63930 -122.42280 2057 ft 170 kts 296°
2026-04-25 21:20 37.64534 -122.43660 2369 ft 189 kts 296°
2026-04-25 21:21 37.65208 -122.45208 2593 ft 215 kts 297°
2026-04-25 21:21 37.65957 -122.46928 3102 ft 228 kts 297°
2026-04-25 21:21 37.66708 -122.48723 3822 ft 237 kts 290°
2026-04-25 21:21 37.66861 -122.50790 4336 ft 250 kts 253°
2026-04-25 21:22 37.65931 -122.52632 5101 ft 257 kts 218°
2026-04-25 21:22 37.64267 -122.53453 5882 ft 266 kts 184°
2026-04-25 21:22 37.62405 -122.53157 6625 ft 275 kts 165°
2026-04-25 21:22 37.60570 -122.52390 7401 ft 280 kts 159°
2026-04-25 21:23 37.58750 -122.51494 8232 ft 282 kts 159°
2026-04-25 21:23 37.56912 -122.50610 9089 ft 283 kts 160°
2026-04-25 21:23 37.55071 -122.49789 9895 ft 286 kts 161°
2026-04-25 21:23 37.53162 -122.49003 10469 ft 297 kts 163°
2026-04-25 21:24 37.51112 -122.48214 10654 ft 319 kts 164°
2026-04-25 21:24 37.48877 -122.47711 11019 ft 333 kts 178°
2026-04-25 21:24 37.46552 -122.47893 11623 ft 338 kts 189°
2026-04-25 21:24 37.44214 -122.48343 12260 ft 342 kts 189°
2026-04-25 21:25 37.41842 -122.48791 12890 ft 347 kts 189°
2026-04-25 21:25 37.39435 -122.49241 13548 ft 351 kts 188°
2026-04-25 21:25 37.37828 -122.49541 13964 ft 354 kts 188°
2026-04-25 21:25 37.34545 -122.50150 14726 ft 359 kts 188°
2026-04-25 21:26 37.32095 -122.50601 15281 ft 363 kts 187°
2026-04-25 21:26 37.29584 -122.51064 15843 ft 366 kts 187°
2026-04-25 21:26 37.27049 -122.51532 16407 ft 370 kts 187°
2026-04-25 21:26 37.24494 -122.52007 16987 ft 373 kts 187°
2026-04-25 21:27 37.21915 -122.52486 17549 ft 377 kts 186°
2026-04-25 21:27 37.19308 -122.52971 18120 ft 380 kts 186°
2026-04-25 21:27 37.16684 -122.53455 18711 ft 381 kts 186°
2026-04-25 21:27 37.14946 -122.53774 19107 ft 382 kts 187°
2026-04-25 21:28 37.11446 -122.54417 19835 ft 386 kts 187°
2026-04-25 21:28 37.09647 -122.54747 20197 ft 388 kts 187°
2026-04-25 21:28 37.06965 -122.55245 20713 ft 391 kts 187°
2026-04-25 21:28 37.03368 -122.55703 21359 ft 395 kts 178°
2026-04-25 21:29 37.00631 -122.55342 21833 ft 398 kts 167°
2026-04-25 21:29 36.98861 -122.54735 22132 ft 400 kts 160°
2026-04-25 21:29 36.96326 -122.53273 22606 ft 403 kts 149°
2026-04-25 21:29 36.93904 -122.51477 23072 ft 407 kts 149°
2026-04-25 21:30 36.90624 -122.49054 23635 ft 412 kts 149°
2026-04-25 21:30 36.88175 -122.47256 24040 ft 415 kts 150°
2026-04-25 21:30 36.86492 -122.46023 24333 ft 415 kts 150°
2026-04-25 21:30 36.84001 -122.44197 24785 ft 416 kts 150°
2026-04-25 21:31 36.81535 -122.42389 25236 ft 416 kts 150°
2026-04-25 21:31 36.79041 -122.40559 25702 ft 416 kts 150°
2026-04-25 21:31 36.76549 -122.38732 26145 ft 416 kts 150°
2026-04-25 21:31 36.74048 -122.36900 26538 ft 417 kts 150°
2026-04-25 21:32 36.71540 -122.35067 26927 ft 419 kts 150°
2026-04-25 21:32 36.68203 -122.32629 27385 ft 421 kts 150°
2026-04-25 21:32 36.66489 -122.31378 27632 ft 423 kts 150°
2026-04-25 21:32 36.63949 -122.29525 28012 ft 424 kts 150°
2026-04-25 21:33 36.61402 -122.27671 28422 ft 425 kts 150°
2026-04-25 21:33 36.58882 -122.25834 28807 ft 426 kts 150°
2026-04-25 21:33 36.56324 -122.23971 29184 ft 427 kts 150°
2026-04-25 21:33 36.53759 -122.22105 29557 ft 428 kts 150°
2026-04-25 21:34 36.51188 -122.20238 29916 ft 429 kts 151°
2026-04-25 21:34 36.48605 -122.18366 30247 ft 430 kts 151°
2026-04-25 21:34 36.46025 -122.16495 30679 ft 428 kts 151°
2026-04-25 21:34 36.43467 -122.14639 31160 ft 425 kts 152°
2026-04-25 21:35 36.40924 -122.12793 31585 ft 423 kts 152°
2026-04-25 21:35 36.38387 -122.10953 31983 ft 422 kts 152°
2026-04-25 21:35 36.35882 -122.09142 32365 ft 422 kts 153°
2026-04-25 21:35 36.33347 -122.07311 32732 ft 421 kts 153°
2026-04-25 21:36 36.30818 -122.05483 33136 ft 421 kts 154°
2026-04-25 21:36 36.28293 -122.03659 33542 ft 420 kts 154°
2026-04-25 21:36 36.25772 -122.01839 33973 ft 418 kts 155°
2026-04-25 21:36 36.23261 -122.00027 34307 ft 417 kts 155°
2026-04-25 21:37 36.20752 -121.98219 34589 ft 418 kts 155°
2026-04-25 21:37 36.19087 -121.97021 34758 ft 418 kts 155°
2026-04-25 21:37 36.15743 -121.94620 34954 ft 421 kts 155°
2026-04-25 21:37 36.13206 -121.92798 34982 ft 423 kts 155°
2026-04-25 21:38 36.08117 -121.89145 34981 ft 423 kts 155°
2026-04-25 21:38 36.03020 -121.85503 34979 ft 423 kts 154°
2026-04-25 21:39 35.98439 -121.80833 34977 ft 437 kts 135°
2026-04-25 21:39 35.94723 -121.74909 34973 ft 440 kts 134°
2026-04-25 21:40 35.90976 -121.68933 34975 ft 441 kts 134°
2026-04-25 21:40 35.87213 -121.62953 34974 ft 441 kts 134°
2026-04-25 21:41 35.83446 -121.56980 34981 ft 441 kts 134°
2026-04-25 21:41 35.79702 -121.51052 34965 ft 442 kts 134°
2026-04-25 21:42 35.75924 -121.45078 34970 ft 442 kts 134°
2026-04-25 21:42 35.72142 -121.39105 34978 ft 442 kts 134°
2026-04-25 21:43 35.68350 -121.33141 34987 ft 443 kts 134°
2026-04-25 21:43 35.64582 -121.27209 34984 ft 443 kts 135°
2026-04-25 21:44 35.60787 -121.21231 34970 ft 443 kts 135°
2026-04-25 21:45 35.55074 -121.12282 34978 ft 444 kts 135°
2026-04-25 21:45 35.51257 -121.06318 34975 ft 445 kts 134°
2026-04-25 21:46 35.47609 -121.00221 34984 ft 448 kts 132°
2026-04-25 21:46 35.44057 -120.93934 34964 ft 449 kts 131°
2026-04-25 21:47 35.40489 -120.87659 34977 ft 448 kts 132°
2026-04-25 21:47 35.36868 -120.81425 34982 ft 449 kts 132°
2026-04-25 21:48 35.33231 -120.75213 34984 ft 449 kts 133°
2026-04-25 21:48 35.29586 -120.68990 34985 ft 450 kts 132°
2026-04-25 21:49 35.25973 -120.62805 34987 ft 450 kts 132°
2026-04-25 21:49 35.22324 -120.56579 34977 ft 450 kts 132°
2026-04-25 21:50 35.18667 -120.50356 34977 ft 451 kts 133°
2026-04-25 21:50 35.15001 -120.44123 34981 ft 452 kts 133°
2026-04-25 21:51 35.11350 -120.37929 34967 ft 452 kts 133°
2026-04-25 21:51 35.07666 -120.31701 34990 ft 452 kts 133°
2026-04-25 21:52 35.03982 -120.25470 34979 ft 453 kts 133°
2026-04-25 21:52 35.00296 -120.19235 34984 ft 453 kts 133°
2026-04-25 21:53 34.96601 -120.13005 34978 ft 453 kts 133°
2026-04-25 21:53 34.92925 -120.06818 34972 ft 453 kts 134°
2026-04-25 21:54 34.89223 -120.00605 34956 ft 453 kts 134°
2026-04-25 21:54 34.85521 -119.94394 34959 ft 453 kts 134°
2026-04-25 21:55 34.81815 -119.88186 34950 ft 453 kts 134°
2026-04-25 21:55 34.78104 -119.81986 34927 ft 454 kts 134°
2026-04-25 21:56 34.74413 -119.75832 34927 ft 454 kts 135°
2026-04-25 21:56 34.70685 -119.69637 34930 ft 454 kts 135°
2026-04-25 21:57 34.66953 -119.63446 34940 ft 455 kts 135°
2026-04-25 21:57 34.63218 -119.57248 34943 ft 454 kts 135°
2026-04-25 21:58 34.59489 -119.51058 34933 ft 454 kts 135°
2026-04-25 21:58 34.55780 -119.44920 34936 ft 454 kts 136°
2026-04-25 21:59 34.52044 -119.38761 34937 ft 453 kts 136°
2026-04-25 21:59 34.48305 -119.32603 34940 ft 453 kts 136°
2026-04-25 22:00 34.42695 -119.23380 34928 ft 454 kts 136°
2026-04-25 22:00 34.38945 -119.17224 34943 ft 454 kts 136°
2026-04-25 22:01 34.35189 -119.11071 34958 ft 454 kts 136°
2026-04-25 22:01 34.32066 -119.05962 34952 ft 454 kts 136°
2026-04-25 22:02 34.27689 -118.98827 34930 ft 455 kts 136°
2026-04-25 22:02 34.23914 -118.92677 34925 ft 456 kts 136°
2026-04-25 22:03 34.20134 -118.86532 34925 ft 456 kts 137°
2026-04-25 22:03 34.16350 -118.80382 34940 ft 456 kts 137°
2026-04-25 22:04 34.12587 -118.74277 34920 ft 456 kts 137°
2026-04-25 22:04 34.08790 -118.68129 34928 ft 457 kts 137°
2026-04-25 22:05 34.04972 -118.61973 34831 ft 459 kts 137°
2026-04-25 22:05 34.03070 -118.58907 34593 ft 457 kts 137°
2026-04-25 22:05 34.01172 -118.55843 34362 ft 455 kts 137°
2026-04-25 22:06 33.99288 -118.52796 34133 ft 452 kts 137°
2026-04-25 22:06 33.97413 -118.49771 33890 ft 449 kts 137°
2026-04-25 22:06 33.95543 -118.46763 33593 ft 447 kts 137°
2026-04-25 22:06 33.93680 -118.43779 33322 ft 443 kts 139°
2026-04-25 22:07 33.91680 -118.41057 33059 ft 432 kts 144°
2026-04-25 22:07 33.90320 -118.39300 32777 ft 429 kts 144°
2026-04-25 22:07 33.87616 -118.35802 32124 ft 424 kts 143°
2026-04-25 22:07 33.85616 -118.33213 31664 ft 421 kts 143°
2026-04-25 22:08 33.83634 -118.30646 31206 ft 418 kts 143°
2026-04-25 22:08 33.81663 -118.28090 30743 ft 415 kts 143°
2026-04-25 22:08 33.79731 -118.25589 30274 ft 413 kts 143°
2026-04-25 22:08 33.77785 -118.23077 29792 ft 410 kts 143°
2026-04-25 22:09 33.75852 -118.20575 29331 ft 407 kts 143°
2026-04-25 22:09 33.73945 -118.18080 28853 ft 404 kts 142°
2026-04-25 22:09 33.72057 -118.15595 28418 ft 401 kts 142°
2026-04-25 22:09 33.70183 -118.13126 27990 ft 399 kts 142°
2026-04-25 22:10 33.68323 -118.10673 27598 ft 396 kts 142°
2026-04-25 22:10 33.66469 -118.08235 27191 ft 394 kts 142°
2026-04-25 22:10 33.64627 -118.05820 26771 ft 392 kts 142°
2026-04-25 22:10 33.62785 -118.03411 26397 ft 390 kts 142°
2026-04-25 22:11 33.60952 -118.01018 25998 ft 389 kts 142°
2026-04-25 22:11 33.59154 -117.98669 25603 ft 387 kts 142°
2026-04-25 22:11 33.57332 -117.96287 25200 ft 386 kts 142°
2026-04-25 22:11 33.55520 -117.93919 24789 ft 385 kts 142°
2026-04-25 22:12 33.53684 -117.91598 24368 ft 382 kts 144°
2026-04-25 22:12 33.51803 -117.89364 23950 ft 379 kts 145°
2026-04-25 22:12 33.49900 -117.87185 23517 ft 378 kts 146°
2026-04-25 22:12 33.48635 -117.85755 23184 ft 377 kts 146°
2026-04-25 22:13 33.46096 -117.82886 22605 ft 373 kts 146°
2026-04-25 22:13 33.44248 -117.80782 22161 ft 371 kts 145°
2026-04-25 22:13 33.42373 -117.78686 21731 ft 366 kts 147°
2026-04-25 22:13 33.40493 -117.76657 21295 ft 363 kts 147°
2026-04-25 22:14 33.38606 -117.74660 20864 ft 360 kts 147°
2026-04-25 22:14 33.36731 -117.72685 20428 ft 358 kts 147°
2026-04-25 22:14 33.34868 -117.70718 20004 ft 356 kts 147°
2026-04-25 22:14 33.33015 -117.68756 19565 ft 355 kts 147°
2026-04-25 22:15 33.31174 -117.66801 19143 ft 354 kts 147°
2026-04-25 22:15 33.29333 -117.64862 18718 ft 352 kts 147°
2026-04-25 22:15 33.27524 -117.62961 18320 ft 350 kts 146°
2026-04-25 22:16 33.23920 -117.59099 17431 ft 346 kts 147°
2026-04-25 22:16 33.22131 -117.57192 16981 ft 343 kts 147°
2026-04-25 22:16 33.20350 -117.55308 16561 ft 342 kts 147°
2026-04-25 22:16 33.18568 -117.53434 16131 ft 341 kts 147°
2026-04-25 22:17 33.16793 -117.51572 15707 ft 339 kts 147°
2026-04-25 22:17 33.15026 -117.49720 15282 ft 337 kts 147°
2026-04-25 22:17 33.13234 -117.47944 14852 ft 330 kts 153°
2026-04-25 22:17 33.11350 -117.46377 14344 ft 331 kts 154°
2026-04-25 22:18 33.09459 -117.44811 13839 ft 332 kts 154°
2026-04-25 22:18 33.07559 -117.43234 13297 ft 332 kts 153°
2026-04-25 22:18 33.05666 -117.41656 12773 ft 332 kts 153°
2026-04-25 22:18 33.03805 -117.40103 12288 ft 330 kts 152°
2026-04-25 22:19 33.01928 -117.38529 11805 ft 330 kts 151°
2026-04-25 22:19 33.00064 -117.36965 11348 ft 328 kts 151°
2026-04-25 22:19 32.98216 -117.35412 10863 ft 320 kts 150°
2026-04-25 22:19 32.96458 -117.33928 10688 ft 299 kts 150°
2026-04-25 22:20 32.94823 -117.32541 10561 ft 280 kts 151°
2026-04-25 22:20 32.93268 -117.31231 10253 ft 269 kts 151°
2026-04-25 22:20 32.91752 -117.29967 10000 ft 265 kts 151°
2026-04-25 22:20 32.90248 -117.28720 9851 ft 263 kts 151°
2026-04-25 22:21 32.88747 -117.27478 9641 ft 263 kts 150°
2026-04-25 22:21 32.87270 -117.26253 9321 ft 262 kts 150°
2026-04-25 22:21 32.85775 -117.25014 8975 ft 262 kts 150°
2026-04-25 22:21 32.84277 -117.23773 8633 ft 263 kts 149°
2026-04-25 22:22 32.82777 -117.22522 8281 ft 265 kts 146°
2026-04-25 22:22 32.81484 -117.20938 7971 ft 270 kts 127°
2026-04-25 22:22 32.80669 -117.18923 7652 ft 273 kts 108°
2026-04-25 22:22 32.80195 -117.16752 7311 ft 270 kts 107°
2026-04-25 22:23 32.79720 -117.14603 6869 ft 269 kts 107°
2026-04-25 22:23 32.79237 -117.12453 6574 ft 268 kts 107°
2026-04-25 22:23 32.78757 -117.10311 6297 ft 265 kts 106°
2026-04-25 22:23 32.78298 -117.08256 6095 ft 249 kts 107°
2026-04-25 22:24 32.77867 -117.06322 6002 ft 238 kts 106°
2026-04-25 22:24 32.77433 -117.04457 5769 ft 236 kts 107°
2026-04-25 22:24 32.76978 -117.02588 5586 ft 236 kts 108°
2026-04-25 22:24 32.76519 -117.00728 5393 ft 234 kts 108°
2026-04-25 22:25 32.76060 -116.98869 5211 ft 235 kts 108°
2026-04-25 22:25 32.75383 -116.97142 4961 ft 230 kts 130°
2026-04-25 22:25 32.74189 -116.95945 4691 ft 224 kts 156°
2026-04-25 22:25 32.72720 -116.95449 4418 ft 218 kts 181°
2026-04-25 22:26 32.71251 -116.95690 4163 ft 211 kts 204°
2026-04-25 22:26 32.70017 -116.96567 3910 ft 206 kts 225°
2026-04-25 22:26 32.69177 -116.97907 3673 ft 202 kts 246°
2026-04-25 22:26 32.68831 -116.99478 3412 ft 201 kts 267°
2026-04-25 22:27 32.68998 -117.01089 3146 ft 194 kts 285°
2026-04-25 22:27 32.69370 -117.02564 2930 ft 179 kts 284°
2026-04-25 22:27 32.69702 -117.03908 2702 ft 157 kts 284°
2026-04-25 22:27 32.69990 -117.05089 2500 ft 143 kts 283°
2026-04-25 22:28 32.70257 -117.06193 2321 ft 136 kts 282°
2026-04-25 22:28 32.70519 -117.07273 2144 ft 136 kts 283°
2026-04-25 22:28 32.70780 -117.08352 1976 ft 135 kts 282°
2026-04-25 22:28 32.71038 -117.09417 1769 ft 134 kts 283°
2026-04-25 22:29 32.71295 -117.10479 1550 ft 135 kts 284°
2026-04-25 22:29 32.71551 -117.11535 1328 ft 134 kts 285°
2026-04-25 22:29 32.71808 -117.12600 1109 ft 133 kts 284°
2026-04-25 22:30 32.72321 -117.14712 704 ft 134 kts 284°
2026-04-25 22:30 32.72578 -117.15779 489 ft 135 kts 285°
2026-04-25 22:30 32.72840 -117.16861 290 ft 136 kts 281°
2026-04-25 22:30 32.73017 -117.17571 154 ft 135 kts 282°
2026-04-25 22:31 32.73344 -117.18925 26 ft 105 kts 287°
2026-04-25 22:31 32.73502 -117.19566 27 ft 56 kts 288°
2026-04-25 22:31 32.73593 -117.19949 26 ft 46 kts 284°
2026-04-25 22:31 32.73659 -117.20249 23 ft 35 kts 287°
2026-04-25 22:32 32.73637 -117.20415 20 ft 18 kts 204°
2026-04-25 22:32 32.73615 -117.20421 19 ft 0 kts 191°
2026-04-25 22:33 32.73605 -117.20412 19 ft 4 kts 130°
2026-04-25 22:33 32.73592 -117.20365 21 ft 6 kts 105°
2026-04-25 22:33 32.73578 -117.20306 23 ft 8 kts 106°
2026-04-25 22:33 32.73571 -117.20278 25 ft 2 kts 107°
2026-04-25 22:34 32.73562 -117.20246 24 ft 5 kts 111°
2026-04-25 22:34 32.73519 -117.20228 27 ft 8 kts 156°
2026-04-25 22:34 32.73482 -117.20198 26 ft 5 kts 153°
2026-04-25 22:34 32.73451 -117.20190 24 ft 3 kts 170°
2026-04-25 22:35 32.73426 -117.20184 23 ft 2 kts 169°
2026-04-25 22:35 32.73411 -117.20181 23 ft 0 kts 170°